Location: Asheville, NC
(35.6000°N, 82.5500°W)
Time: 18:23:42
(UTC-04:00)

Hubble Space Telescope - Pass Details

Date: 09 December 2017
Orbit: 537 x 541 km, 28.5° (Epoch: 19 July)

Event Time Altitude Azimuth Distance (km) Brightness Sun altitude
Rises 19:37:14 0° 248° (WSW) 2,676 5.5 -27.7°
Reaches altitude 10° 19:39:41 10° 237° (WSW) 1,785 4.2 -28.2°
Enters shadow 19:41:51 23° 212° (SSW) 1,156 2.8 -28.7°
